Latest Weather Observations for Walpole North

IDW60801

Issued at 5:05 am WST Thursday 31 July 2014 (issued every 30 minutes, with the page automatically refreshed every 10 minutes)

About weather observations | Map of weather stations | Latest weather observations for WA | Other Formats
Station Details ID: 009998 Name: NORTH WALPOLE Lat: -34.95 Lon: 116.72 Height: 73.0 m
Data from the previous 72 hours. | See also: Recent months at Walpole North
Date/Time
WST
Temp
°C
App
Temp
°C
Dew
Point
Rel
Hum
%
Delta-T
°C
Wind Press
QNH
hPa
Press
MSL
hPa
Rain
since 9 am
mm
Dir
 
Spd
km/h
Gust
km/h
Spd
kts
Gust
kts
31/05:00am 10.4 5.7 3.2 61 3.1 SSW 17 28 9 15 1023.4 1023.4 1.2
31/04:30am 10.4 5.9 4.1 65 2.8 SW 17 30 9 16 1023.1 - 1.2
31/04:00am 10.4 5.7 3.4 62 3.1 SW 17 35 9 19 1023.1 1023.1 1.2
31/03:30am 10.4 5.6 4.8 68 2.5 SW 19 32 10 17 1023.0 - 1.2
31/03:00am 10.6 4.5 4.9 68 2.6 SSW 26 46 14 25 1023.0 1023.0 1.2
31/02:30am 11.1 6.4 5.0 66 2.8 SW 19 41 10 22 1022.4 - 1.2
31/02:00am 10.9 5.7 5.4 69 2.5 WSW 22 35 12 19 1022.1 1022.1 1.2
31/01:30am 11.0 5.9 6.0 71 2.3 WSW 22 35 12 19 1021.9 - 1.2
31/01:00am 11.4 6.5 4.2 61 3.2 WSW 19 30 10 16 1021.8 1021.8 1.2
31/12:30am 11.5 5.5 3.5 58 3.5 WSW 24 41 13 22 1021.6 - 1.2
31/12:00am 11.3 5.3 3.1 57 3.6 WSW 24 39 13 21 1021.5 1021.5 1.2
 
Date/Time
WST
Temp
°C
App
Temp
°C
Dew
Point
Rel
Hum
%
Delta-T
°C
Wind Press
QNH
hPa
Press
MSL
hPa
Rain
since 9 am
mm
Dir
 
Spd
km/h
Gust
km/h
Spd
kts
Gust
kts
30/11:30pm 11.5 6.4 4.3 61 3.2 SW 20 24 11 13 1021.4 - 1.2
30/11:00pm 11.6 5.3 3.9 59 3.4 WSW 26 44 14 24 1021.1 1021.1 1.2
30/10:30pm 11.6 6.7 5.0 64 3.0 WSW 20 35 11 19 1020.9 - 1.2
30/10:00pm 11.7 6.4 4.9 63 3.1 WSW 22 43 12 23 1020.8 1020.8 1.2
30/09:30pm 11.9 5.4 4.9 62 3.2 WSW 28 54 15 29 1020.3 - 1.2
30/09:00pm 12.3 5.3 6.1 66 2.9 WSW 32 54 17 29 1019.6 1019.7 1.2
30/08:30pm 12.5 5.6 7.2 70 2.6 WSW 33 63 18 34 1019.0 - 1.2
30/08:02pm 12.8 7.5 10.0 83 1.4 WSW 28 52 15 28 1018.7 - 1.2
30/08:00pm 12.7 7.4 9.9 83 1.4 WSW 28 44 15 24 1018.6 1018.7 1.2
30/07:45pm 12.7 7.5 10.4 86 1.2 WSW 28 50 15 27 1018.3 - 1.2
30/07:30pm 12.8 8.2 10.9 88 1.0 WSW 26 39 14 21 1018.3 - 1.2
30/07:00pm 13.2 9.6 10.6 84 1.4 W 20 35 11 19 1017.8 1017.9 1.2
30/06:30pm 13.3 8.9 10.5 83 1.5 W 24 39 13 21 1017.6 - 1.2
30/06:00pm 13.3 8.9 10.3 82 1.6 W 24 43 13 23 1017.4 1017.5 1.2
30/05:30pm 13.2 8.7 10.2 82 1.6 W 24 39 13 21 1017.3 - 1.2
30/05:00pm 14.3 9.1 10.1 76 2.2 W 28 46 15 25 1017.2 1017.3 1.2
30/04:54pm 14.2 8.9 9.8 75 2.3 W 28 46 15 25 1017.1 - 1.2
30/04:30pm 14.5 10.0 10.1 75 2.3 W 24 44 13 24 1016.8 - 1.2
30/04:06pm 14.5 9.2 9.9 74 2.4 W 28 46 15 25 1016.7 - 1.2
30/04:00pm 14.4 9.8 9.8 74 2.4 W 24 46 13 25 1016.7 1016.7 1.2
30/03:30pm 14.9 10.5 10.3 74 2.4 W 24 44 13 24 1016.5 - 1.2
30/03:00pm 14.9 10.0 11.3 79 1.9 W 28 52 15 28 1016.4 1016.4 1.2
30/02:56pm 14.6 9.7 11.4 81 1.7 W 28 52 15 28 1016.2 - 1.2
30/02:30pm 14.0 10.1 12.2 89 1.0 W 24 39 13 21 1016.0 - 1.2
30/02:00pm 13.9 10.5 12.6 92 0.7 W 22 39 12 21 1015.9 1015.9 1.2
30/01:30pm 13.6 9.9 12.8 95 0.4 W 24 35 13 19 1016.0 - 1.2
30/01:00pm 14.0 10.7 12.9 93 0.6 WNW 22 26 12 14 1015.9 1015.9 1.0
30/12:30pm 14.7 9.5 11.5 81 1.7 WNW 30 54 16 29 1015.8 - 0.2
30/12:00pm 15.3 10.4 12.6 84 1.5 WNW 30 50 16 27 1016.0 1016.0 0.0
30/11:30am 14.7 9.9 12.9 89 1.0 WNW 30 50 16 27 1016.5 - 0.0
30/11:27am 14.5 10.1 12.9 90 0.9 WNW 28 50 15 27 1016.5 - 0.0
30/11:00am 14.9 11.3 12.0 83 1.6 W 22 37 12 20 1016.9 1017.0 0.0
30/10:30am 15.1 11.1 13.1 88 1.1 WNW 26 44 14 24 1017.1 - 0.0
30/10:00am 14.2 10.4 13.6 96 0.3 WNW 26 39 14 21 1017.2 1017.3 0.0
30/09:30am 13.6 9.7 13.4 99 0.1 WNW 26 37 14 20 1016.9 - 0.0
30/09:00am 13.3 9.3 13.1 99 0.1 WNW 26 39 14 21 1016.7 1016.7 1.0
30/08:30am 13.1 8.6 12.6 97 0.3 WNW 28 39 15 21 1016.6 - 0.8
30/08:00am 13.0 8.4 12.2 95 0.4 WNW 28 39 15 21 1016.6 1016.6 0.4
30/07:30am 13.1 8.0 11.8 92 0.7 WNW 30 43 16 23 1016.5 - 0.2
30/07:00am 12.9 8.4 11.3 90 0.8 WNW 26 35 14 19 1016.3 1016.3 0.0
30/06:30am 13.5 10.2 11.0 85 1.3 WNW 19 28 10 15 1016.4 - 0.0
30/06:00am 13.7 10.1 10.5 81 1.7 WNW 20 33 11 18 1016.2 1016.2 0.0
30/05:30am 13.8 9.0 10.4 80 1.8 WNW 26 41 14 22 1016.2 - 0.0
30/05:00am 13.8 9.5 10.6 81 1.7 NW 24 33 13 18 1016.1 1016.1 0.0
30/04:30am 13.7 9.9 11.0 84 1.4 NW 22 28 12 15 1016.3 - 0.0
30/04:00am 13.7 10.4 11.6 87 1.1 NW 20 32 11 17 1016.5 1016.5 0.0
30/03:30am 13.6 9.6 11.7 88 1.0 NW 24 33 13 18 1016.5 - 0.0
30/03:00am 13.4 9.3 11.5 88 1.0 NW 24 33 13 18 1016.7 1016.7 0.0
30/02:30am 13.3 9.9 11.2 87 1.1 NW 20 28 11 15 1016.9 - 0.0
30/02:00am 13.5 10.1 10.7 83 1.5 WNW 19 30 10 16 1017.2 1017.3 0.0
30/01:30am 14.3 9.2 10.5 78 2.0 NW 28 39 15 21 1017.2 - 0.0
30/01:00am 14.3 8.8 10.7 79 1.9 NW 30 44 16 24 1017.2 1017.3 0.0
30/12:30am 13.8 9.1 10.6 81 1.7 NW 26 39 14 21 1017.6 - 0.0
30/12:00am 14.0 9.8 11.0 82 1.6 NW 24 33 13 18 1017.6 1017.7 0.0
 
Date/Time
WST
Temp
°C
App
Temp
°C
Dew
Point
Rel
Hum
%
Delta-T
°C
Wind Press
QNH
hPa
Press
MSL
hPa
Rain
since 9 am
mm
Dir
 
Spd
km/h
Gust
km/h
Spd
kts
Gust
kts
29/11:30pm 14.2 9.6 11.2 82 1.6 NW 26 35 14 19 1017.6 - 0.0
29/11:00pm 14.2 9.7 11.4 83 1.5 NW 26 33 14 18 1017.8 1017.9 0.0
29/10:30pm 14.4 10.2 11.2 81 1.7 NW 24 33 13 18 1018.1 - 0.0
29/10:00pm 14.2 10.4 11.0 81 1.7 NW 22 35 12 19 1018.2 1018.3 0.0
29/09:30pm 14.4 10.9 11.0 80 1.8 NW 20 28 11 15 1018.2 - 0.0
29/09:00pm 14.5 10.3 11.1 80 1.8 NW 24 37 13 20 1018.3 1018.4 0.0
29/08:30pm 14.5 10.4 11.3 81 1.7 NW 24 41 13 22 1018.7 - 0.0
29/08:00pm 14.6 10.5 11.6 82 1.6 NW 24 35 13 19 1018.8 1018.9 0.0
29/07:30pm 14.4 10.3 11.6 83 1.5 NW 24 33 13 18 1018.8 - 0.0
29/07:00pm 14.7 10.7 11.7 82 1.6 NW 24 37 13 20 1018.7 1018.8 0.0
29/06:30pm 14.9 10.1 11.5 80 1.8 NW 28 41 15 22 1018.5 - 0.0
29/06:00pm 14.7 11.1 11.8 83 1.6 NW 22 33 12 18 1018.3 1018.4 0.0
29/05:30pm 14.1 10.9 11.8 86 1.2 WNW 20 30 11 16 1018.2 - 0.0
29/05:00pm 14.9 11.6 11.5 80 1.8 WNW 20 32 11 17 1018.0 1018.1 0.0
29/04:30pm 15.1 11.5 11.9 81 1.7 NW 22 30 12 16 1018.1 - 0.0
29/04:00pm 15.4 10.9 11.4 77 2.1 WNW 26 35 14 19 1018.5 1018.6 0.0
29/03:30pm 15.7 10.5 11.7 77 2.2 WNW 30 43 16 23 1018.4 - 0.0
29/03:00pm 16.0 13.1 12.4 79 2.0 WNW 19 30 10 16 1018.4 1018.5 0.0
29/02:30pm 16.0 13.0 12.6 80 1.9 WNW 20 32 11 17 1018.4 - 0.0
29/02:00pm 15.9 12.4 12.3 79 2.0 WNW 22 39 12 21 1018.3 1018.4 0.0
29/01:30pm 15.2 10.5 12.0 81 1.7 WNW 28 41 15 22 1018.5 - 0.0
29/01:00pm 16.3 11.7 12.3 77 2.2 NW 28 39 15 21 1018.7 1018.8 0.0
29/12:30pm 16.4 11.7 12.0 75 2.4 WNW 28 43 15 23 1018.9 - 0.0
29/12:00pm 17.1 12.5 12.4 74 2.6 NW 28 44 15 24 1019.2 1019.3 0.0
29/11:30am 15.9 11.9 11.7 76 2.3 WNW 24 35 13 19 1019.6 - 0.0
29/11:00am 15.6 11.4 11.2 75 2.4 NW 24 35 13 19 1020.0 1020.0 0.0
29/10:30am 15.2 11.4 11.2 77 2.1 NW 22 32 12 17 1020.1 - 0.0
29/10:00am 15.0 10.8 11.2 78 2.0 WNW 24 32 13 17 1020.1 1020.1 0.0
29/09:30am 14.7 10.9 11.3 80 1.8 NW 22 32 12 17 1019.7 - 0.0
29/09:00am 14.4 11.2 11.4 82 1.6 NW 19 26 10 14 1019.6 1019.7 0.4
29/08:30am 14.3 10.9 11.3 82 1.6 NW 20 30 11 16 1019.4 - 0.4
29/08:00am 14.1 10.0 11.3 83 1.5 NW 24 32 13 17 1019.2 1019.3 0.4
29/07:30am 13.6 10.2 11.3 86 1.2 NW 20 33 11 18 1018.8 - 0.4
29/07:00am 13.6 9.9 11.5 87 1.1 NW 22 30 12 16 1018.8 1018.9 0.4
29/06:30am 13.4 10.0 11.1 86 1.2 NW 20 28 11 15 1018.5 - 0.4
29/06:00am 13.6 10.3 10.9 84 1.4 NW 19 28 10 15 1018.2 1018.3 0.4
29/05:30am 13.7 10.9 11.2 85 1.3 NW 17 22 9 12 1018.2 - 0.4
29/05:00am 13.6 10.3 10.8 83 1.5 WNW 19 22 10 12 1018.4 1018.5 0.4
29/04:30am 13.7 10.3 10.5 81 1.7 NW 19 30 10 16 1018.0 - 0.4
29/04:00am 13.9 10.2 10.3 79 1.9 NW 20 33 11 18 1017.9 1018.0 0.2
29/03:30am 13.9 9.8 10.1 78 2.0 WNW 22 28 12 15 1018.1 - 0.2
29/03:00am 14.5 10.8 10.3 76 2.2 WNW 20 33 11 18 1018.0 1018.1 0.2
29/02:30am 13.7 9.0 10.7 82 1.6 WNW 26 33 14 18 1017.7 - 0.2
29/02:00am 13.8 9.5 10.8 82 1.6 WNW 24 35 13 19 1017.8 1017.9 0.2
29/01:30am 13.6 9.7 10.8 83 1.5 WNW 22 32 12 17 1018.1 - 0.2
29/01:00am 13.5 9.2 10.7 83 1.5 WNW 24 35 13 19 1018.3 1018.4 0.2
29/12:30am 13.4 9.1 10.6 83 1.5 WNW 24 37 13 20 1018.1 - 0.2
29/12:00am 13.1 8.7 10.5 84 1.4 NW 24 35 13 19 1017.9 1018.0 0.2
 
Date/Time
WST
Temp
°C
App
Temp
°C
Dew
Point
Rel
Hum
%
Delta-T
°C
Wind Press
QNH
hPa
Press
MSL
hPa
Rain
since 9 am
mm
Dir
 
Spd
km/h
Gust
km/h
Spd
kts
Gust
kts
28/11:30pm 13.3 9.0 10.7 84 1.4 WNW 24 35 13 19 1018.1 - 0.2
28/11:00pm 13.1 9.5 10.5 84 1.4 WNW 20 32 11 17 1018.5 1018.6 0.2
28/10:30pm 13.4 9.4 10.6 83 1.5 NW 22 30 12 16 1018.5 - 0.2
28/10:00pm 13.7 9.4 10.9 83 1.5 NW 24 32 13 17 1018.3 1018.4 0.2
28/09:30pm 13.7 9.7 10.3 80 1.8 WNW 22 32 12 17 1018.3 - 0.2
28/09:00pm 14.1 9.7 10.5 79 1.9 NW 24 37 13 20 1018.5 1018.6 0.2
28/08:30pm 14.0 10.5 10.8 81 1.7 WNW 20 28 11 15 1018.6 - 0.2
28/08:00pm 14.2 9.2 11.0 81 1.7 NW 28 39 15 21 1018.5 1018.6 0.2
28/07:30pm 14.4 9.8 11.2 81 1.7 NW 26 35 14 19 1018.4 - 0.2
28/07:00pm 14.4 9.9 11.4 82 1.6 WNW 26 35 14 19 1018.4 1018.5 0.2
28/06:30pm 14.4 10.3 11.4 82 1.6 WNW 24 35 13 19 1018.1 - 0.2
28/06:00pm 14.4 9.9 11.4 82 1.6 WNW 26 43 14 23 1017.9 1018.0 0.2
28/05:30pm 14.2 9.7 11.5 84 1.4 WNW 26 35 14 19 1017.6 - 0.2
28/05:00pm 14.0 9.7 12.0 88 1.1 WNW 26 37 14 20 1017.4 1017.5 0.2
28/04:30pm 13.8 8.1 11.7 87 1.1 WNW 33 56 18 30 1017.3 - 0.2
28/04:03pm 15.3 10.5 11.7 79 1.9 WNW 28 50 15 27 1017.0 - 0.2
28/04:00pm 15.5 10.8 11.9 79 2.0 WNW 28 44 15 24 1017.0 1017.1 0.2
28/03:34pm 15.1 9.6 11.7 80 1.8 WNW 32 50 17 27 1017.0 - 0.2
28/03:30pm 15.3 9.8 11.9 80 1.8 WNW 32 46 17 25 1016.9 - 0.2
28/03:02pm 16.0 10.5 11.8 76 2.3 WNW 32 50 17 27 1016.6 - 0.2
28/03:00pm 16.3 10.7 12.1 76 2.3 WNW 33 50 18 27 1016.7 1016.7 0.2
28/02:39pm 16.3 11.8 12.5 78 2.1 WNW 28 46 15 25 1016.8 - 0.2
28/02:30pm 15.9 10.9 12.3 79 2.0 WNW 30 43 16 23 1016.5 - 0.2
28/02:12pm 15.7 11.1 12.3 80 1.9 WNW 28 50 15 27 1016.4 - 0.2
28/02:00pm 15.9 12.2 12.8 82 1.7 WNW 24 44 13 24 1016.7 1016.7 0.2
28/01:30pm 16.9 11.3 12.2 74 2.6 WNW 33 54 18 29 1016.2 - 0.2
28/01:04pm 16.6 10.7 11.1 70 3.0 WNW 33 54 18 29 1016.5 - 0.2
28/01:00pm 16.9 11.1 11.4 70 3.0 WNW 33 48 18 26 1016.6 1016.6 0.2
28/12:39pm 16.1 11.1 11.1 72 2.7 WNW 28 46 15 25 1016.6 - 0.2
28/12:30pm 16.5 13.0 12.1 75 2.4 WNW 22 33 12 18 1016.9 - 0.2
28/12:00pm 16.6 11.2 12.2 75 2.4 WNW 32 44 17 24 1016.9 1017.0 0.2
28/11:30am 16.4 12.9 13.5 83 1.6 WNW 24 44 13 24 1017.4 - 0.2
28/11:00am 15.0 9.6 11.0 77 2.1 WNW 30 48 16 26 1017.8 1017.9 0.2
28/10:58am 15.8 10.9 11.4 75 2.4 WNW 28 46 15 25 1017.6 - 0.0
28/10:30am 15.3 11.4 12.2 82 1.7 WNW 24 43 13 23 1017.5 - 0.0
28/10:00am 15.0 11.8 13.0 88 1.1 WNW 22 30 12 16 1017.6 1017.7 0.0
28/09:30am 14.1 11.1 12.7 91 0.8 WNW 20 30 11 16 1017.5 - 0.0
28/09:00am 13.6 10.3 12.7 94 0.5 NW 22 30 12 16 1017.1 1017.2 4.8
28/08:30am 13.0 10.1 12.2 95 0.4 WNW 19 28 10 15 1017.0 - 4.8
28/08:00am 13.2 10.1 12.3 94 0.5 NW 20 28 11 15 1016.7 1016.7 4.0
28/07:30am 12.8 9.2 12.0 95 0.4 NW 22 33 12 18 1016.4 - 3.8
28/07:00am 12.7 8.4 11.9 95 0.4 NW 26 35 14 19 1016.0 1016.0 3.8
28/06:30am 12.7 9.2 12.1 96 0.3 WNW 22 32 12 17 1016.0 - 3.2
28/06:00am 12.6 8.3 12.0 96 0.3 WNW 26 35 14 19 1015.4 1015.4 3.2
28/05:30am 12.5 8.1 11.7 95 0.4 WNW 26 39 14 21 1015.5 - 3.2

Other Formats:

Comma delimited format used in spreadsheet applications
http://www.bom.gov.au/fwo/IDW60801/IDW60801.95647.axf

JavaScript Object Notation format (JSON) in row-major order
http://www.bom.gov.au/fwo/IDW60801/IDW60801.95647.json